When you browse on this site, cookies collect data to enhance your experience and personalize the content and advertising you see.
Visit our Privacy Policy to learn more. By continuing to use the site, you agree to this use of cookies and data.
  • In Hungary
  • List of Countries
  • For 7 days
  • Water Temperature
  • Weather Map
  • News
  • Weather Widgets
  • user-avatar
    Login

    Hourly Weather Dakar

    Today, 12 November, Tuesday

    Time Temperature Precipitation Wind Pressure Humidity
    00:00 +29°C° 0 mm 8 mps 757 mmHg 56%
    01:00 +29°C° 0 mm 8 mps 756 mmHg 51%
    02:00 +29°C° 0 mm 8 mps 756 mmHg 45%
    03:00 +28°C° 0 mm 8 mps 756 mmHg 45%
    04:00 +28°C° 0 mm 8 mps 756 mmHg 44%
    05:00 +27°C° 0 mm 8 mps 756 mmHg 43%
    06:00 +28°C° 0 mm 8 mps 756 mmHg 38%
    07:00 +29°C° 0 mm 7 mps 757 mmHg 32%
    08:00 +30°C° 0 mm 7 mps 757 mmHg 27%
    09:00 +32°C° 0 mm 7 mps 757 mmHg 27%
    10:00 +34°C° 0 mm 6 mps 757 mmHg 26%
    11:00 +36°C° 0 mm 6 mps 757 mmHg 26%
    12:00 +35°C° 0 mm 6 mps 756 mmHg 29%
    13:00 +34°C° 0 mm 6 mps 756 mmHg 32%
    14:00 +34°C° 0 mm 7 mps 755 mmHg 35%
    15:00 +32°C° 0 mm 7 mps 755 mmHg 42%
    16:00 +30°C° 0 mm 7 mps 755 mmHg 48%
    17:00 +29°C° 0 mm 8 mps 755 mmHg 55%
    18:00 +28°C° 0 mm 8 mps 755 mmHg 58%
    19:00 +28°C° 0 mm 8 mps 756 mmHg 62%
    20:00 +27°C° 0 mm 8 mps 757 mmHg 66%
    21:00 +27°C° 0 mm 9 mps 757 mmHg 66%
    22:00 +27°C° 0 mm 9 mps 757 mmHg 67%
    23:00 +27°C° 0 mm 9 mps 757 mmHg 68%

    Tomorrow, 13 November, Wednesday

    Time Temperature Precipitation Wind Pressure Humidity
    00:00 +27°C° 0 mm 9 mps 756 mmHg 69%
    01:00 +27°C° 0 mm 9 mps 756 mmHg 70%
    02:00 +27°C° 0 mm 8 mps 756 mmHg 71%
    03:00 +26°C° 0 mm 8 mps 756 mmHg 71%
    04:00 +26°C° 0 mm 8 mps 756 mmHg 71%
    05:00 +26°C° 0 mm 8 mps 756 mmHg 71%
    06:00 +27°C° 0 mm 7 mps 756 mmHg 61%
    07:00 +28°C° 0 mm 7 mps 757 mmHg 50%
    08:00 +29°C° 0 mm 7 mps 757 mmHg 39%
    09:00 +32°C° 0 mm 7 mps 757 mmHg 35%
    10:00 +33°C° 0 mm 7 mps 757 mmHg 30%
    11:00 +35°C° 0 mm 7 mps 757 mmHg 25%
    12:00 +35°C° 0 mm 7 mps 756 mmHg 28%
    13:00 +34°C° 0 mm 7 mps 756 mmHg 30%
    14:00 +34°C° 0 mm 6 mps 756 mmHg 33%
    15:00 +33°C° 0 mm 6 mps 755 mmHg 40%
    16:00 +30°C° 0 mm 6 mps 755 mmHg 47%
    17:00 +29°C° 0 mm 6 mps 755 mmHg 54%
    18:00 +28°C° 0 mm 6 mps 756 mmHg 59%
    19:00 +28°C° 0 mm 5 mps 757 mmHg 64%
    20:00 +27°C° 0 mm 5 mps 757 mmHg 69%
    21:00 +27°C° 0 mm 5 mps 757 mmHg 69%
    22:00 +27°C° 0 mm 6 mps 757 mmHg 70%
    23:00 +27°C° 0 mm 6 mps 757 mmHg 71%

    Day after tomorrow, 14 November, Thursday

    Time Temperature Precipitation Wind Pressure Humidity
    00:00 +27°C° 0 mm 6 mps 757 mmHg 71%
    01:00 +27°C° 0 mm 6 mps 757 mmHg 72%
    02:00 +27°C° 0 mm 6 mps 757 mmHg 72%
    03:00 +26°C° 0 mm 6 mps 757 mmHg 72%
    04:00 +26°C° 0 mm 6 mps 756 mmHg 72%
    05:00 +26°C° 0 mm 6 mps 756 mmHg 72%
    06:00 +27°C° 0 mm 6 mps 757 mmHg 67%
    07:00 +28°C° 0 mm 6 mps 757 mmHg 62%
    08:00 +28°C° 0 mm 6 mps 758 mmHg 57%
    09:00 +30°C° 0 mm 6 mps 757 mmHg 49%
    10:00 +33°C° 0 mm 6 mps 757 mmHg 40%
    11:00 +34°C° 0 mm 6 mps 757 mmHg 31%
    12:00 +34°C° 0 mm 5 mps 756 mmHg 33%
    13:00 +34°C° 0 mm 5 mps 756 mmHg 35%
    14:00 +33°C° 0 mm 5 mps 755 mmHg 37%
    15:00 +32°C° 0 mm 5 mps 755 mmHg 43%
    16:00 +30°C° 0 mm 5 mps 755 mmHg 48%
    17:00 +29°C° 0 mm 6 mps 755 mmHg 54%
    18:00 +29°C° 0 mm 6 mps 756 mmHg 59%
    19:00 +28°C° 0 mm 6 mps 756 mmHg 63%
    20:00 +28°C° 0 mm 7 mps 757 mmHg 68%
    21:00 +27°C° 0 mm 6 mps 757 mmHg 72%
    22:00 +27°C° 0 mm 6 mps 757 mmHg 75%
    23:00 +27°C° 0 mm 5 mps 757 mmHg 79%

    15 November, Friday

    Time Temperature Precipitation Wind Pressure Humidity
    00:00 +27°C° 0 mm 5 mps 757 mmHg 79%
    01:00 +26°C° 0 mm 5 mps 757 mmHg 79%
    02:00 +26°C° 0 mm 5 mps 756 mmHg 79%
    03:00 +26°C° 0 mm 5 mps 756 mmHg 80%
    04:00 +26°C° 0 mm 6 mps 756 mmHg 80%
    05:00 +26°C° 0 mm 6 mps 756 mmHg 80%
    06:00 +27°C° 0 mm 5 mps 756 mmHg 76%
    07:00 +27°C° 0 mm 5 mps 757 mmHg 72%
    08:00 +28°C° 0 mm 5 mps 757 mmHg 68%
    09:00 +29°C° 0 mm 5 mps 757 mmHg 64%
    10:00 +29°C° 0 mm 5 mps 757 mmHg 61%
    11:00 +30°C° 0 mm 4 mps 757 mmHg 57%
    12:00 +30°C° 0 mm 4 mps 757 mmHg 58%
    13:00 +30°C° 0 mm 4 mps 756 mmHg 58%
    14:00 +30°C° 0 mm 4 mps 756 mmHg 58%
    15:00 +29°C° 0 mm 5 mps 756 mmHg 62%
    16:00 +28°C° 0 mm 5 mps 756 mmHg 66%
    17:00 +28°C° 0 mm 6 mps 756 mmHg 70%
    18:00 +27°C° 0 mm 6 mps 756 mmHg 72%
    19:00 +27°C° 0 mm 6 mps 756 mmHg 74%
    20:00 +27°C° 0 mm 6 mps 757 mmHg 75%
    21:00 +27°C° 0 mm 6 mps 757 mmHg 76%
    22:00 +27°C° 0 mm 6 mps 757 mmHg 77%
    23:00 +27°C° 0 mm 6 mps 757 mmHg 78%

    16 November, Saturday

    Time Temperature Precipitation Wind Pressure Humidity
    00:00 +27°C° 0 mm 6 mps 756 mmHg 78%
    01:00 +27°C° 0 mm 6 mps 756 mmHg 77%
    02:00 +27°C° 0 mm 5 mps 756 mmHg 76%
    03:00 +27°C° 0 mm 5 mps 756 mmHg 78%
    04:00 +26°C° 0 mm 5 mps 756 mmHg 79%
    05:00 +26°C° 0 mm 5 mps 756 mmHg 81%
    06:00 +27°C° 0 mm 5 mps 756 mmHg 77%
    07:00 +27°C° 0 mm 6 mps 756 mmHg 74%
    08:00 +28°C° 0 mm 6 mps 757 mmHg 71%
    09:00 +28°C° 0 mm 6 mps 757 mmHg 66%
    10:00 +29°C° 0 mm 5 mps 757 mmHg 61%
    11:00 +30°C° 0 mm 5 mps 757 mmHg 56%
    12:00 +30°C° 0 mm 5 mps 756 mmHg 56%
    13:00 +30°C° 0 mm 5 mps 756 mmHg 55%
    14:00 +30°C° 0 mm 5 mps 755 mmHg 54%
    15:00 +29°C° 0 mm 5 mps 755 mmHg 59%
    16:00 +29°C° 0 mm 5 mps 755 mmHg 64%
    17:00 +28°C° 0 mm 5 mps 755 mmHg 68%
    18:00 +28°C° 0 mm 6 mps 756 mmHg 70%
    19:00 +28°C° 0 mm 6 mps 756 mmHg 71%
    20:00 +28°C° 0 mm 6 mps 756 mmHg 72%
    21:00 +28°C° 0 mm 6 mps 756 mmHg 72%
    22:00 +28°C° 0 mm 6 mps 757 mmHg 73%
    23:00 +28°C° 0 mm 6 mps 757 mmHg 73%

    17 November, Sunday

    Time Temperature Precipitation Wind Pressure Humidity
    00:00 +28°C° 0 mm 6 mps 756 mmHg 71%
    01:00 +28°C° 0 mm 6 mps 756 mmHg 69%
    02:00 +28°C° 0 mm 6 mps 756 mmHg 67%
    03:00 +28°C° 0 mm 7 mps 756 mmHg 69%
    04:00 +27°C° 0 mm 7 mps 756 mmHg 71%
    05:00 +27°C° 0 mm 7 mps 755 mmHg 73%
    06:00 +28°C° 0 mm 6 mps 756 mmHg 69%
    07:00 +28°C° 0 mm 6 mps 757 mmHg 66%
    08:00 +29°C° 0 mm 5 mps 757 mmHg 63%
    09:00 +30°C° 0 mm 5 mps 757 mmHg 54%
    10:00 +32°C° 0 mm 5 mps 757 mmHg 46%
    11:00 +34°C° 0 mm 5 mps 757 mmHg 37%
    12:00 +34°C° 0 mm 5 mps 757 mmHg 37%
    13:00 +33°C° 0 mm 6 mps 756 mmHg 38%
    14:00 +33°C° 0 mm 6 mps 755 mmHg 38%
    15:00 +32°C° 0 mm 7 mps 755 mmHg 43%
    16:00 +30°C° 0 mm 7 mps 755 mmHg 48%
    17:00 +29°C° 0 mm 7 mps 755 mmHg 53%
    18:00 +29°C° 0 mm 7 mps 756 mmHg 57%
    19:00 +28°C° 0 mm 7 mps 756 mmHg 61%
    20:00 +28°C° 0 mm 8 mps 757 mmHg 65%
    21:00 +28°C° 0 mm 8 mps 757 mmHg 64%
    22:00 +28°C° 0 mm 8 mps 757 mmHg 63%
    23:00 +28°C° 0 mm 8 mps 758 mmHg 63%
    Show more